This is the latest recevied weather packets stored in our database for station/object WX5HOT. If no packets are shown the sender has not sent any weather packets the latest 10 day(s).
| Time | Temp. | Humidity | Pressure | Rain* | Wind** | Luminosity | Snow |
|---|---|---|---|---|---|---|---|
| 1778009387 | 18.89° C | 99% | 1056.9 hPa | 0 mm | - | 69 W/m² | - |
| 1778009086 | 18.89° C | 99% | 1056.6 hPa | 0 mm | - | 154 W/m² | - |
| 1778008782 | 18.33° C | 99% | 1056.6 hPa | 0 mm | - | 177 W/m² | - |
| 1778008481 | 18.33° C | 99% | 1056.6 hPa | 0 mm | - | 139 W/m² | - |
| 1778008177 | 18.33° C | 99% | 1056.6 hPa | 0 mm | - | 198 W/m² | - |
| 1778007873 | 18.33° C | 99% | 1056.9 hPa | 0 mm | - | 164 W/m² | - |
| 1778007569 | 18.33° C | 99% | 1057 hPa | 0 mm | - | 135 W/m² | - |
| 1778007266 | 18.33° C | 99% | 1056.9 hPa | 0 mm | - | 118 W/m² | - |
| 1778006962 | 17.78° C | 99% | 1057 hPa | 0 mm | - | 135 W/m² | - |
| 1778006659 | 17.78° C | 99% | 1056.9 hPa | 0 mm | - | 111 W/m² | - |
| 1778006356 | 17.78° C | 99% | 1056.9 hPa | 0 mm | - | 78 W/m² | - |
| 1778006053 | 17.78° C | 99% | 1056.9 hPa | 0 mm | - | 96 W/m² | - |
| 1778005749 | 17.78° C | 99% | 1057.1 hPa | 0 mm | - | 94 W/m² | - |
| 1778005446 | 17.78° C | 99% | 1057 hPa | 0 mm | - | 74 W/m² | - |
| 1778005143 | 17.78° C | 99% | 1057.2 hPa | 0 mm | - | 78 W/m² | - |
| 1778004840 | 17.78° C | 99% | 1057.2 hPa | 0 mm | - | 101 W/m² | - |
| 1778004537 | 17.78° C | 99% | 1057.1 hPa | 0 mm | - | 102 W/m² | - |
| 1778004233 | 17.78° C | 99% | 1057.2 hPa | 1.27 mm | - | 100 W/m² | - |
| 1778003930 | 17.78° C | 99% | 1057.3 hPa | 1.27 mm | - | 85 W/m² | - |
| 1778003626 | 17.22° C | 99% | 1057.4 hPa | 0 mm | - | 65 W/m² | - |
| 1778003323 | 17.22° C | 99% | 1057.4 hPa | 0 mm | - | 91 W/m² | - |
| 1778003020 | 17.22° C | 99% | 1057.5 hPa | 1.78 mm | - | 71 W/m² | - |
| 1778002716 | 17.22° C | 99% | 1057.5 hPa | 1.78 mm | - | 73 W/m² | - |
| 1778002413 | 17.22° C | 99% | 1057.5 hPa | 0 mm | - | 71 W/m² | - |
| 1778002110 | 17.22° C | 99% | 1057.5 hPa | 0 mm | - | 81 W/m² | - |
* Rain latest hour (hover to see other rain measurements)
** Current wind speed in m/s (hover to see current wind gust speed)